www.pogodaiklimat.ru

Погода и климат >> Архив погоды >> Индия >> Keongjhargarh


ПОГОДА в Keongjhargarh

  • Прогноз погоды в Keongjhargarh
  • Монитор погоды в Keongjhargarh
  • Климат города

АРХИВ ПОГОДЫ в Keongjhargarh

Время (UTC), дата Ветер
(напр.,м/с)
 
Видим.   Явления Облачность Т
(С)
Тd
(С)
f
(%)
Тe
(С)
Тes
(С)
Комфортность P
(гПа)
Po
(гПа)
Тmin
(С)
Tmax
(С)
R
(мм)
R24
(мм)
S
(см)
03 15.10 штиль 0 4000 м ясно +24.0 +21.1 84 +30 +39 очень
душно
1015.7 1016.0 +18.4
06 15.10 ЮЗ 1 4000 м 4/4 600 м
[Sc diur, vesp]
+29.2 +18.4 52 +34 +45 очень
душно
1014.4 1014.0
09 15.10 штиль 0 4000 м 6/3 600 м
[Sc Ac trans Ci sp]
+29.2 +19.4 56 +35 +42 очень
душно
1012.0 1012.0
12 15.10 штиль 0 4000 м 6/3 600 м
[Sc Ac trans Ci sp]
+27.0 +22.1 75 +35 +35 очень
душно
1011.8 1012.0 +30.5
03 16.10 штиль 0 4000 м ясно +25.2 +19.5 71 +31 +39 очень
душно
1015.7 1016.0 +18.4
06 16.10 штиль 0 4000 м 3/3 600 м
[Sc]
+30.0 +16.4 44 +33 +48 душно 1014.2 1014.0
09 16.10 штиль 0 4000 м ясно +30.6 +14.9 39 +33 +45 душно 1011.7 1012.0
12 16.10 штиль 0 4000 м ясно +26.4 +19.9 67 +32 +32 очень
душно
1012.2 1012.0 +31.4
03 17.10 штиль 0 4000 м ясно +25.6 +17.6 61 +30 +38 душно 1014.8 1015.0 +17.4
06 17.10 штиль 0 4000 м 3/0
[Ci sp]
+30.8 +15.9 41 +34 +53 опасность
солнечного
удара
1012.4 1012.0
09 17.10 штиль 0 4000 м ясно +31.0 +14.6 37 +33 +44 душно 1009.3 1009.0
12 17.10 штиль 0 4000 м ясно +27.4 +21.0 68 +34 +34 очень
душно
1009.7 1010.0 +31.3
03 18.10 штиль 0 4000 м ясно +27.4 +19.0 60 +33 +41 очень
душно
1013.1 1013.0 +19.7
06 18.10 штиль 0 4000 м ясно +31.0 +16.6 42 +34 +55 опасность
солнечного
удара
1011.8 1012.0
09 18.10 штиль 0 4000 м 3/3 600 м
[Sc diur, vesp]
+32.0 +19.7 48 +38 +46 очень
душно
1009.0 1009.0
12 18.10 штиль 0 4000 м ясно +27.6 +20.2 64 +34 +34 очень
душно
1010.4 1010.0 +32.6
03 19.10 штиль 0 4000 м ясно +26.6 +19.8 66 +32 +40 очень
душно
1014.0 1014.0 +19.6
06 19.10 штиль 0 4000 м 1/1 600 м
[Sc]
+31.0 +18.4 47 +36 +54 опасность
солнечного
удара
1012.6 1013.0
09 19.10 штиль 0 4000 м ясно +32.0 +16.0 38 +35 +46 очень
душно
1010.5 1011.0
12 19.10 штиль 0 4000 м ясно +27.6 +21.5 69 +35 +35 очень
душно
1011.7 1012.0 +32.3
03 20.10 штиль 0 4000 м ясно +26.6 +19.8 66 +32 +40 очень
душно
1016.6 1017.0 +19.6
06 20.10 С 1 4000 м 1/1 600 м
[Sc]
+31.2 +16.2 40 +34 +51 опасность
солнечного
удара
1013.8 1014.0
09 20.10 СВ 1 4000 м ясно +31.6 +15.4 38 +34 +44 душно 1011.3 1011.0
12 20.10 штиль 0 4000 м ясно +27.6 +20.9 67 +35 +35 очень
душно
1012.5 1013.0 +32.0
03 21.10 штиль 0 4000 м 5/0
[Ac trans Ci sp]
+27.0 +12.5 41 +29 +34 жарко 1016.3 1016.0 +18.2
06 21.10 штиль 0 4000 м ясно +30.2 +14.7 39 +32 +53 опасность
солнечного
удара
1014.4 1014.0
09 21.10 штиль 0 4000 м 3/0 600 м
[Ac trans]
+31.0 +15.4 39 +33 +43 душно 1012.2 1012.0
12 21.10 штиль 0 4000 м ясно +26.6 +19.1 63 +32 +32 очень
душно
1012.9 1013.0 +31.4

 

Местоположение метеостанции Keongjhargarh (Orissa, Индия): широта 21.62 долгота 85.52 высота над уровнем моря 463 м.

В архиве по умолчанию представлена погода в Keongjhargarh за последнюю неделю. Архивные данные за месяц целиком и за предыдущие месяцы, начиная с января 2011 года, Вы можете получить, выбрав интересующий диапазон дат из раскрывающегося списка и нажав кнопку "Ввод!".


*Определитесь, кто Вы:
робот инопланетянин человек

Внимание! Время в таблицах - всемирное. Для получения местного времени необходимо прибавить поправку, которая в Keongjhargarh равна 5.5 ч.

Смотрите также архив погоды в соседних городах и на ближайших метеорологических станциях:

Погода в Angul (Orissa, Индия) (98 км)
Погода в Chaibasa (Jharkhand, Индия) (108 км)
Погода в Baripada (Orissa, Индия) (134 км)
Погода в Cuttack (Orissa, Индия) (135 км)
Погода в Balasore (Orissa, Индия) (146 км)
Погода в Jamshedpur (Jharkhand, Индия) (150 км)
Погода в Jharsuguda (Orissa, Индия) (152 км)
Погода в Bhubaneswar (Orissa, Индия) (156 км)
Погода в Chandbali (Orissa, Индия) (156 км)
Погода в Sambalpur (Orissa, Индия) (161 км)

Пояснения к столбцам:

Ветер - указаны скорость ветра в м/с - средняя за 10 мин, порывы в срок и между сроками (в фигурных скобках) и направление, откуда дует ветер: С - северный, СВ - северо-восточный, В - восточный, ЮВ - юго-восточный, Ю - южный, ЮЗ - юго-западный, З - западный, СЗ - северо-западный.
Видимость - горизонтальная дальность видимости в метрах или километрах. При видимости от 1 до 10 км при отсутствии осадков обычно наблюдается дымка, при ухудшении видимости до 1 км и менее - туман. В сухую погоду видимость может ухудшаться дымом, пылью или мглою.
Явления - указаны атмосферные явления, наблюдавшиеся в срок или в последний час перед сроком; фигурными скобками обозначены явления, наблюдавшиеся между сроками (за 1-3 часа до срока); квадратными скобками обозначены град или гололедные отложения с указанием их диаметра в мм.
Облачность - указаны через наклонную черту общая и нижняя облачность в баллах и высота нижней границы облаков в метрах; квадратными скобками обозначены формы облаков: Ci - перистые, Cs - перисто-слоистые, Cc - перисто-кучевые, Ac - высококучевые, As - высокослоистые, Sc - слоисто-кучевые, Ns - слоисто-дождевые, Cu - кучевые, Cb - кучево-дождевые. Подробнее классификацию облаков см. в Атласе облаков (PDF).
T - Температура воздуха - температура, измеренная на высоте 2 м над землей.
Td - Температура точки росы - температура, при понижении до которой содержащийся в воздухе водяной пар достигнет насыщения.
f - Относительная влажность воздуха - влажноcть воздуха, измеренная на высоте 2 м над землей.
Te - Эффективная температура - температура, которую ощущает одетый по сезону человек в тени. Характеристика душности погоды. При расчете учитывается влияние влажности воздуха и скорости ветра на теплоощущения человека.
Tes - Эффективная температура на солнце - температура, которую ощущает человек, с поправкой на солнечный нагрев. Характеристика знойности погоды. Зависит от высоты солнца над горизонтом, облачности и скорости ветра. Ночью, в пасмурную погоду, а также при ветре 12 м/с и более поправка равна нулю.
P - Атмосферное давление - приведенное к уровню моря атмосферное давление.
Po - Атмосферное давление - измеренное на уровне метеостанции атмосферное давление.
Tmin - Минимальная температура - минимум температуры воздуха на высоте 2 м над землей.
Tmax - Максимальная температура - максимум температуры воздуха на высоте 2 м над землей.
R - Количество осадков - Количество выпавших осадков за период времени, мм. При наведении курсора мыши на число - период времени, за который выпало указанное количество осадков.
R24 - Количество осадков - Количество выпавших осадков за 24 часа, мм.
S - Снежный покров - Высота снежного покрова, см. При наведении курсора мыши на число - состояние снежного покрова и степень покрытия местности в баллах.